FW2987 Weather Reports


Display with metric or nautical units.
time (UTC)temp
F
wind
direction
speed
MPH
gust
MPH
rain 1hr
in
rain 24hr
in
rain mn
in
humidity
%
barometer
mb
20260507204607 53 339 0.0 0.0 0.00 0.00 0.00 100 1013.1
20260507204103 53 338 0.0 0.0 0.00 0.00 0.00 100 1013.1
20260507203604 53 338 0.0 0.0 0.00 0.00 0.00 100 1013.1
20260507203105 53 339 0.0 0.0 0.00 0.00 0.00 100 1013.0
20260507202601 53 339 0.0 0.0 0.00 0.00 0.00 100 1013.1
20260507202100 53 338 0.0 0.0 0.00 0.00 0.00 100 1013.0
20260507201607 54 339 0.0 0.0 0.00 0.00 0.00 100 1013.0
20260507201056 54 338 0.0 0.0 0.00 0.00 0.00 100 1013.0
20260507200549 54 338 0.0 0.0 0.00 0.00 0.00 100 1012.9
20260507200043 54 338 0.0 0.0 0.00 0.00 0.00 100 1012.9
20260507195542 54 338 0.0 0.0 0.00 0.00 0.00 100 1012.9
20260507195040 54 338 0.0 0.0 0.00 0.00 0.00 100 1012.8
20260507194537 55 339 0.0 0.0 0.00 0.00 0.00 100 1012.8
20260507194037 55 338 0.0 0.0 0.00 0.00 0.00 100 1012.8
20260507193534 55 338 0.0 1.0 0.00 0.00 0.00 100 1012.8
20260507193024 55 338 0.0 2.0 0.00 0.00 0.00 100 1012.7
20260507192521 55 339 0.0 0.0 0.00 0.00 0.00 100 1012.7
20260507192019 56 338 0.0 0.0 0.00 0.00 0.00 100 1012.7
20260507191517 56 338 0.0 0.0 0.00 0.00 0.00 100 1012.7
20260507191014 56 339 0.0 0.0 0.00 0.00 0.00 100 1012.6
20260507190513 56 339 0.0 0.0 0.00 0.00 0.00 100 1012.7
20260507190012 57 338 0.0 0.0 0.00 0.00 0.00 100 1012.6
20260507185509 57 338 0.0 3.0 0.00 0.00 0.00 100 1012.7
20260507185008 57 338 1.0 5.0 0.00 0.00 0.00 100 1012.6
20260507184501 57 339 2.0 5.0 0.00 0.00 0.00 100 1012.6
20260507184001 58 339 1.0 4.0 0.00 0.00 0.00 100 1012.6
20260507182002 58 338 1.0 4.0 0.00 0.00 0.00 100 1012.6
20260507090157 61 117 3.0 8.0 0.00 0.00 0.00 100 1013.4
20260507085653 60 119 1.0 6.0 0.00 0.00 0.00 100 1013.4
20260507085150 60 119 3.0 6.0 0.00 0.00 0.00 100 1013.4
20260507084648 60 119 2.0 6.0 0.00 0.00 0.00 100 1013.4
20260507084137 60 119 2.0 7.0 0.00 0.00 0.00 100 1013.4
20260507083634 59 119 2.0 7.0 0.00 0.00 0.00 100 1013.4
20260507083132 59 119 3.0 7.0 0.00 0.00 0.00 100 1013.4
20260507082630 59 119 2.0 4.0 0.00 0.00 0.00 100 1013.4
20260507082130 59 119 2.0 8.0 0.00 0.00 0.00 100 1013.3
20260507081626 59 119 3.0 10.0 0.00 0.00 0.00 100 1013.3
20260507081127 59 119 5.0 10.0 0.00 0.00 0.00 100 1013.4
20260507080622 59 105 4.0 8.0 0.00 0.00 0.00 100 1013.4
20260507080123 59 105 3.0 7.0 0.00 0.00 0.00 100 1013.4
20260507075118 58 105 4.0 8.0 0.00 0.00 0.00 100 1013.3
20260507074613 58 105 5.0 8.0 0.00 0.00 0.00 100 1013.4
20260507074112 58 105 4.0 8.0 0.00 0.00 0.00 100 1013.4
20260507073610 57 105 4.0 8.0 0.00 0.00 0.00 100 1013.3
20260507073108 57 105 3.0 8.0 0.00 0.00 0.00 100 1013.3
20260507072607 56 103 4.0 8.0 0.00 0.00 0.00 100 1013.3
20260507072106 56 103 4.0 9.0 0.00 0.00 0.00 100 1013.3
20260507071602 56 103 4.0 9.0 0.00 0.00 0.00 100 1013.2
20260507071101 55 102 4.0 9.0 0.00 0.00 0.00 100 1013.3
20260507070558 55 89 6.0 9.0 0.00 0.00 0.00 100 1013.2
20260507070101 55 349 2.0 6.0 0.00 0.00 0.00 100 1013.2
20260507065555 55 348 2.0 5.0 0.00 0.00 0.00 100 1013.2
20260507065052 55 348 2.0 5.0 0.00 0.00 0.00 100 1013.2
20260507064551 54 348 0.0 0.0 0.00 0.00 0.00 100 1013.2
20260507064049 53 348 0.0 0.0 0.00 0.00 0.00 100 1013.1
20260507063550 52 348 0.0 0.0 0.00 0.00 0.00 100 1013.1
20260507063049 51 348 0.0 0.0 0.00 0.00 0.00 100 1013.1
20260507062542 50 348 0.0 0.0 0.00 0.00 0.00 100 1013.1
20260507062040 49 348 0.0 0.0 0.00 0.00 0.00 100 1013.1
20260507061541 49 348 0.0 0.0 0.00 0.00 0.00 100 1013.1
20260507061037 48 348 0.0 0.0 0.00 0.00 0.00 100 1013.1
20260507060534 48 348 0.0 0.0 0.00 0.00 0.00 100 1013.1
20260507060048 48 348 0.0 0.0 0.00 0.00 0.00 100 1013.2
20260507055534 48 348 0.0 0.0 0.00 0.00 0.00 100 1013.1
20260507055028 48 348 0.0 0.0 0.00 0.00 0.00 100 1013.1
20260507054533 48 348 0.0 0.0 0.00 0.00 0.00 100 1013.0
20260507054024 48 348 0.0 0.0 0.00 0.00 0.00 100 1013.1
20260507053522 48 348 0.0 0.0 0.00 0.00 0.00 100 1013.1
20260507053021 48 348 0.0 0.0 0.00 0.00 0.00 100 1013.0
20260507052520 48 348 0.0 0.0 0.00 0.00 0.00 100 1013.0
20260507052018 47 348 0.0 0.0 0.00 0.00 0.00 100 1013.0
20260507051515 47 348 0.0 0.0 0.00 0.00 0.00 100 1012.9
20260507051012 47 348 0.0 0.0 0.00 0.00 0.00 100 1013.0
20260507050510 47 348 0.0 0.0 0.00 0.00 0.00 100 1012.9
20260507050008 47 348 0.0 0.0 0.00 0.00 0.00 100 1012.8
20260507045506 48 348 0.0 0.0 0.00 0.00 0.00 100 1012.8
20260507045005 47 348 0.0 0.0 0.00 0.00 0.00 100 1012.8
20260507044506 48 348 0.0 0.0 0.00 0.00 0.00 100 1012.7
20260507044000 48 348 0.0 0.0 0.00 0.00 0.00 100 1012.7